This is the latest recevied weather packets stored in our database for station/object KJ5BMY-13. If no packets are shown the sender has not sent any weather packets the latest 10 day(s).
| Time | Temp. | Humidity | Pressure | Rain* | Wind** | Luminosity | Snow |
|---|---|---|---|---|---|---|---|
| 1778160853 | 16.11° C | 74% | 1022.7 hPa | 0 mm | - | - | - |
| 1778160552 | 16.11° C | 75% | 1022.7 hPa | 0 mm | - | - | - |
| 1778160247 | 15.56° C | 77% | 1022.8 hPa | 0 mm | - | - | - |
| 1778159944 | 15° C | 80% | 1022.7 hPa | 0 mm | - | - | - |
| 1778159641 | 13.89° C | 85% | 1022.5 hPa | 0 mm | - | - | - |
| 1778159338 | 12.78° C | 90% | 1022.7 hPa | 0 mm | - | - | - |
| 1778159035 | 12.78° C | 93% | 1022.5 hPa | 0 mm | - | - | - |
| 1778158734 | 12.22° C | 94% | 1022.5 hPa | 0 mm | - | - | - |
| 1778158431 | 12.22° C | 95% | 1022.5 hPa | 0 mm | - | - | - |
| 1778158129 | 11.67° C | 95% | 1022.4 hPa | 0 mm | - | - | - |
| 1778157824 | 11.67° C | 95% | 1022.5 hPa | 0 mm | - | - | - |
| 1778157523 | 11.67° C | 95% | 1022.3 hPa | 0 mm | - | - | - |
| 1778157220 | 11.67° C | 95% | 1022.5 hPa | 0 mm | - | - | - |
| 1778156916 | 11.11° C | 95% | 1022.4 hPa | 0 mm | - | - | - |
| 1778156611 | 11.11° C | 95% | 1022.6 hPa | 0 mm | - | - | - |
| 1778156308 | 11.11° C | 95% | 1022.3 hPa | 0 mm | - | - | - |
| 1778156004 | 10.56° C | 95% | 1022.2 hPa | 0 mm | - | - | - |
| 1778155700 | 10.56° C | 95% | 1022.1 hPa | 0 mm | - | - | - |
| 1778155396 | 10.56° C | 95% | 1021.9 hPa | 0 mm | - | - | - |
| 1778155093 | 10.56° C | 95% | 1021.9 hPa | 0 mm | - | - | - |
| 1778154789 | 10.56° C | 95% | 1022 hPa | 0 mm | - | - | - |
| 1778154485 | 10.56° C | 95% | 1021.9 hPa | 0 mm | - | - | - |
| 1778154182 | 10.56° C | 95% | 1021.8 hPa | 0 mm | - | - | - |
| 1778153880 | 10.56° C | 95% | 1021.7 hPa | 0 mm | - | - | - |
| 1778153576 | 10.56° C | 95% | 1021.6 hPa | 0 mm | - | - | - |
* Rain latest hour (hover to see other rain measurements)
** Current wind speed in m/s (hover to see current wind gust speed)